This is the latest recevied weather packets stored in our database for station/object EA7OC-10. If no packets are shown the sender has not sent any weather packets the latest 10 day(s).
| Time | Temp. | Humidity | Pressure | Rain* | Wind** | Luminosity | Snow |
|---|---|---|---|---|---|---|---|
| 1788378781 | 33.89° C | 22% | 1017.8 hPa | - | - | - | - |
| 1788377881 | 34.44° C | 22% | 1017.7 hPa | - | - | - | - |
| 1788376980 | 35.56° C | 22% | 1017.5 hPa | - | - | - | - |
| 1788376080 | 36.67° C | 22% | 1017.3 hPa | - | - | - | - |
| 1788375180 | 37.78° C | 22% | 1017.3 hPa | - | - | - | - |
| 1788374280 | 39.44° C | 22% | 1017.3 hPa | - | - | - | - |
| 1788373380 | 42.22° C | 21% | 1017.3 hPa | - | - | - | - |
| 1788372480 | 43.89° C | 22% | 1017.4 hPa | - | - | - | - |
| 1788371580 | 45° C | 22% | 1017.3 hPa | - | - | - | - |
| 1788370680 | 46.11° C | 22% | 1017.3 hPa | - | - | - | - |
| 1788369779 | 46.67° C | 22% | 1017.1 hPa | - | - | - | - |
| 1788368879 | 47.78° C | 22% | 1017.2 hPa | - | - | - | - |
| 1788367979 | 47.78° C | 23% | 1017.2 hPa | - | - | - | - |
| 1788367079 | 48.33° C | 23% | 1017.2 hPa | - | - | - | - |
| 1788366179 | 49.44° C | 23% | 1017.2 hPa | - | - | - | - |
| 1788365279 | 49.44° C | 23% | 1017.2 hPa | - | - | - | - |
| 1788364379 | 48.89° C | 24% | 1017.3 hPa | - | - | - | - |
| 1788363479 | 49.44° C | 23% | 1017.3 hPa | - | - | - | - |
| 1788362579 | 48.89° C | 24% | 1017.4 hPa | - | - | - | - |
| 1788361679 | 48.89° C | 24% | 1017.6 hPa | - | - | - | - |
| 1788360778 | 48.33° C | 24% | 1017.7 hPa | - | - | - | - |
| 1788359878 | 48.89° C | 24% | 1017.8 hPa | - | - | - | - |
| 1788358978 | 48.89° C | 24% | 1017.9 hPa | - | - | - | - |
| 1788358078 | 48.89° C | 25% | 1018.2 hPa | - | - | - | - |
| 1788357178 | 47.78° C | 25% | 1018.2 hPa | - | - | - | - |
* Rain since midnight (hover to see other rain measurements)
** Current wind speed in m/s (hover to see current wind gust speed)